Time,TemperatureF,DewpointF,PressureIn,WindDirection,WindDirectionDegrees,WindSpeedMPH,WindSpeedGustMPH,Humidity,HourlyPrecipIn,Conditions,Clouds,dailyrainin,SoftwareType,DateUTC
2013-01-29 00:03:00,64.0,63.0,30.25,East,83,0.0,0.0,95,0.00,,,0.00,,2013-01-29 05:03:00,
2013-01-29 00:12:00,64.0,63.0,30.25,East,83,0.0,0.0,95,0.00,,,0.00,,2013-01-29 05:12:00,
2013-01-29 00:21:00,64.0,63.0,30.25,East,83,0.0,0.0,96,0.00,,,0.00,,2013-01-29 05:21:00,
2013-01-29 00:32:00,63.0,62.0,30.24,East,83,0.0,0.0,96,0.00,,,0.00,,2013-01-29 05:32:00,
2013-01-29 00:43:00,63.0,62.0,30.24,East,83,0.0,0.0,96,0.00,,,0.00,,2013-01-29 05:43:00,
2013-01-29 00:52:00,63.0,62.0,30.24,East,83,0.0,0.0,96,0.00,,,0.00,,2013-01-29 05:52:00,
2013-01-29 01:02:00,62.0,61.0,30.24,East,83,0.0,0.0,96,0.00,,,0.00,,2013-01-29 06:02:00,
2013-01-29 01:11:00,62.0,61.0,30.24,East,83,0.0,0.0,96,0.00,,,0.00,,2013-01-29 06:11:00,
2013-01-29 01:21:00,62.0,61.0,30.24,East,83,0.0,0.0,96,0.00,,,0.00,,2013-01-29 06:21:00,
2013-01-29 01:32:00,62.0,61.0,30.24,East,83,0.0,0.0,96,0.00,,,0.00,,2013-01-29 06:32:00,
2013-01-29 01:42:00,62.0,61.0,30.24,East,83,0.0,0.0,96,0.00,,,0.00,,2013-01-29 06:42:00,
2013-01-29 01:52:00,62.0,61.0,30.23,East,83,0.0,0.0,97,0.00,,,0.00,,2013-01-29 06:52:00,
2013-01-29 02:01:00,62.0,61.0,30.22,East,83,0.0,0.0,96,0.00,,,0.00,,2013-01-29 07:01:00,
2013-01-29 02:11:00,62.0,61.0,30.22,East,83,0.0,0.0,96,0.00,,,0.00,,2013-01-29 07:11:00,
2013-01-29 02:21:00,62.0,61.0,30.22,East,83,0.0,0.0,96,0.00,,,0.00,,2013-01-29 07:21:00,
2013-01-29 02:32:00,61.0,60.0,30.22,East,83,0.0,0.0,97,0.00,,,0.00,,2013-01-29 07:32:00,
2013-01-29 02:42:00,61.0,60.0,30.22,East,83,0.0,0.0,97,0.00,,,0.00,,2013-01-29 07:42:00,
2013-01-29 02:52:00,61.0,60.0,30.21,East,83,0.0,0.0,97,0.00,,,0.00,,2013-01-29 07:52:00,
2013-01-29 03:02:00,61.0,60.0,30.21,East,83,0.0,0.0,97,0.00,,,0.00,,2013-01-29 08:02:00,
2013-01-29 03:11:00,61.0,60.0,30.21,East,83,0.0,0.0,97,0.00,,,0.00,,2013-01-29 08:11:00,
2013-01-29 03:21:00,61.0,60.0,30.21,East,83,0.0,0.0,97,0.00,,,0.00,,2013-01-29 08:21:00,
2013-01-29 03:31:00,61.0,60.0,30.21,East,83,0.0,0.0,97,0.00,,,0.00,,2013-01-29 08:31:00,
2013-01-29 03:42:00,61.0,60.0,30.21,East,83,0.0,0.0,97,0.00,,,0.00,,2013-01-29 08:42:00,
2013-01-29 03:52:00,60.0,59.0,30.21,East,83,0.0,0.0,97,0.00,,,0.00,,2013-01-29 08:52:00,
2013-01-29 04:01:00,60.0,59.0,30.21,East,83,0.0,0.0,97,0.00,,,0.00,,2013-01-29 09:01:00,
2013-01-29 04:11:00,60.0,59.0,30.21,East,83,0.0,0.0,97,0.00,,,0.00,,2013-01-29 09:11:00,
2013-01-29 04:21:00,60.0,59.0,30.20,East,83,0.0,0.0,97,0.00,,,0.00,,2013-01-29 09:21:00,
2013-01-29 04:32:00,59.0,58.0,30.20,East,83,0.0,0.0,97,0.00,,,0.00,,2013-01-29 09:32:00,
2013-01-29 04:42:00,59.0,58.0,30.20,East,83,0.0,0.0,97,0.00,,,0.00,,2013-01-29 09:42:00,
2013-01-29 04:52:00,59.0,58.0,30.21,East,83,0.0,0.0,97,0.00,,,0.00,,2013-01-29 09:52:00,
2013-01-29 05:01:00,59.0,58.0,30.21,East,83,0.0,0.0,97,0.00,,,0.00,,2013-01-29 10:01:00,
2013-01-29 05:11:00,59.0,58.0,30.21,East,83,0.0,0.0,97,0.00,,,0.00,,2013-01-29 10:11:00,
2013-01-29 05:21:00,59.0,58.0,30.21,East,83,0.0,0.0,98,0.00,,,0.00,,2013-01-29 10:21:00,
2013-01-29 05:32:00,59.0,58.0,30.20,East,83,0.0,0.0,98,0.00,,,0.00,,2013-01-29 10:32:00,
2013-01-29 05:42:00,59.0,58.0,30.20,East,83,0.0,0.0,98,0.00,,,0.00,,2013-01-29 10:42:00,
2013-01-29 05:52:00,59.0,58.0,30.20,East,83,0.0,0.0,97,0.00,,,0.00,,2013-01-29 10:52:00,
2013-01-29 06:02:00,59.0,58.0,30.21,East,83,0.0,0.0,97,0.00,,,0.00,,2013-01-29 11:02:00,
2013-01-29 06:11:00,59.0,58.0,30.21,East,83,0.0,0.0,97,0.00,,,0.00,,2013-01-29 11:11:00,
2013-01-29 06:22:00,58.0,57.0,30.21,East,83,0.0,0.0,98,0.00,,,0.00,,2013-01-29 11:22:00,
2013-01-29 06:32:00,58.0,57.0,30.21,East,83,0.0,0.0,98,0.00,,,0.00,,2013-01-29 11:32:00,
2013-01-29 06:42:00,58.0,57.0,30.21,East,83,0.0,0.0,98,0.00,,,0.00,,2013-01-29 11:42:00,
2013-01-29 06:53:00,59.0,58.0,30.21,East,83,0.0,0.0,98,0.00,,,0.00,,2013-01-29 11:53:00,
2013-01-29 07:02:00,58.0,57.0,30.21,East,83,0.0,0.0,98,0.00,,,0.00,,2013-01-29 12:02:00,
2013-01-29 07:12:00,58.0,57.0,30.22,East,83,0.0,0.0,97,0.00,,,0.00,,2013-01-29 12:12:00,
2013-01-29 07:22:00,58.0,57.0,30.22,East,83,0.0,0.0,97,0.00,,,0.00,,2013-01-29 12:22:00,
2013-01-29 07:33:00,58.0,57.0,30.22,East,83,0.0,0.0,98,0.00,,,0.00,,2013-01-29 12:33:00,
2013-01-29 07:43:00,58.0,57.0,30.22,East,83,0.0,0.0,98,0.00,,,0.00,,2013-01-29 12:43:00,
2013-01-29 07:53:00,58.0,57.0,30.23,East,83,0.0,0.0,98,0.00,,,0.00,,2013-01-29 12:53:00,
2013-01-29 08:02:00,58.0,57.0,30.22,East,83,0.0,0.0,98,0.00,,,0.00,,2013-01-29 13:02:00,
2013-01-29 08:12:00,58.0,57.0,30.22,East,83,0.0,0.0,98,0.00,,,0.00,,2013-01-29 13:12:00,
2013-01-29 08:22:00,59.0,58.0,30.23,East,83,0.0,0.0,98,0.00,,,0.00,,2013-01-29 13:22:00,
2013-01-29 08:32:00,61.0,60.0,30.23,East,83,0.0,0.0,98,0.00,,,0.00,,2013-01-29 13:32:00,
2013-01-29 08:42:00,61.0,60.0,30.23,East,83,0.0,0.0,98,0.00,,,0.00,,2013-01-29 13:42:00,
2013-01-29 08:52:00,66.0,66.0,30.22,East,83,0.0,0.0,99,0.00,,,0.00,,2013-01-29 13:52:00,
2013-01-29 09:02:00,69.0,69.0,30.22,East,85,0.0,0.0,99,0.00,,,0.00,,2013-01-29 14:02:00,
2013-01-29 09:12:00,70.0,70.0,30.22,SE,134,0.0,0.0,99,0.00,,,0.00,,2013-01-29 14:12:00,
2013-01-29 09:22:00,70.0,70.0,30.22,SE,134,0.0,0.0,99,0.00,,,0.00,,2013-01-29 14:22:00,
2013-01-29 09:33:00,72.0,70.0,30.22,SSE,164,1.0,6.0,92,0.00,,,0.00,,2013-01-29 14:33:00,
2013-01-29 09:43:00,72.0,70.0,30.22,SSE,164,1.0,6.0,92,0.00,,,0.00,,2013-01-29 14:43:00,
2013-01-29 09:53:00,74.0,69.0,30.22,SSE,152,3.0,6.0,85,0.00,,,0.00,,2013-01-29 14:53:00,
2013-01-29 10:02:00,75.0,69.0,30.22,SE,139,3.0,7.0,83,0.00,,,0.00,,2013-01-29 15:02:00,
2013-01-29 10:12:00,75.0,69.0,30.22,SE,139,3.0,7.0,83,0.00,,,0.00,,2013-01-29 15:12:00,
2013-01-29 10:22:00,76.0,69.0,30.22,East,90,5.0,9.0,80,0.00,,,0.00,,2013-01-29 15:22:00,
2013-01-29 10:33:00,76.0,69.0,30.22,East,90,5.0,9.0,80,0.00,,,0.00,,2013-01-29 15:33:00,
2013-01-29 10:43:00,76.0,69.0,30.22,East,90,5.0,9.0,80,0.00,,,0.00,,2013-01-29 15:43:00,
2013-01-29 10:53:00,77.0,70.0,30.22,SSE,165,3.0,7.0,78,0.00,,,0.00,,2013-01-29 15:53:00,
2013-01-29 11:02:00,77.0,70.0,30.22,SE,141,2.0,9.0,78,0.00,,,0.00,,2013-01-29 16:02:00,
2013-01-29 11:12:00,77.0,70.0,30.22,SE,141,2.0,9.0,78,0.00,,,0.00,,2013-01-29 16:12:00,
2013-01-29 11:23:00,77.0,69.0,30.22,ESE,110,3.0,9.0,76,0.00,,,0.00,,2013-01-29 16:23:00,
2013-01-29 11:32:00,77.0,69.0,30.22,East,94,5.0,12.0,77,0.00,,,0.00,,2013-01-29 16:32:00,
2013-01-29 11:43:00,77.0,69.0,30.22,East,94,5.0,12.0,77,0.00,,,0.00,,2013-01-29 16:43:00,
2013-01-29 11:53:00,77.0,69.0,30.22,ESE,105,6.0,12.0,76,0.00,,,0.00,,2013-01-29 16:53:00,
2013-01-29 12:03:00,78.0,69.0,30.21,ESE,109,4.0,12.0,74,0.00,,,0.00,,2013-01-29 17:03:00,
2013-01-29 12:12:00,78.0,69.0,30.21,ESE,109,4.0,12.0,74,0.00,,,0.00,,2013-01-29 17:12:00,
2013-01-29 12:22:00,77.0,69.0,30.20,East,81,4.0,9.0,77,0.00,,,0.00,,2013-01-29 17:22:00,
2013-01-29 12:32:00,77.0,68.0,30.19,SE,125,5.0,12.0,75,0.00,,,0.00,,2013-01-29 17:32:00,
2013-01-29 12:42:00,77.0,68.0,30.19,SE,125,5.0,12.0,75,0.00,,,0.00,,2013-01-29 17:42:00,
2013-01-29 12:52:00,78.0,69.0,30.17,East,86,6.0,12.0,74,0.00,,,0.00,,2013-01-29 17:52:00,
2013-01-29 13:04:00,78.0,69.0,30.17,SE,134,5.0,12.0,75,0.00,,,0.00,,2013-01-29 18:04:00,
2013-01-29 13:12:00,78.0,69.0,30.17,SE,134,5.0,12.0,75,0.00,,,0.00,,2013-01-29 18:12:00,
2013-01-29 13:22:00,77.0,68.0,30.16,East,94,5.0,10.0,75,0.00,,,0.00,,2013-01-29 18:22:00,
2013-01-29 13:33:00,77.0,69.0,30.15,East,93,6.0,12.0,76,0.00,,,0.00,,2013-01-29 18:33:00,
2013-01-29 13:42:00,77.0,69.0,30.15,East,93,6.0,12.0,76,0.00,,,0.00,,2013-01-29 18:42:00,
2013-01-29 13:52:00,76.0,68.0,30.15,ESE,104,4.0,10.0,76,0.00,,,0.00,,2013-01-29 18:52:00,
2013-01-29 14:03:00,76.0,68.0,30.14,South,171,5.0,12.0,77,0.00,,,0.00,,2013-01-29 19:03:00,
2013-01-29 14:12:00,76.0,68.0,30.14,South,171,5.0,12.0,77,0.00,,,0.00,,2013-01-29 19:12:00,
2013-01-29 14:22:00,76.0,68.0,30.13,East,96,5.0,12.0,77,0.00,,,0.00,,2013-01-29 19:22:00,
2013-01-29 14:32:00,76.0,69.0,30.14,ESE,102,3.0,6.0,78,0.00,,,0.00,,2013-01-29 19:32:00,
2013-01-29 14:42:00,76.0,69.0,30.14,ESE,102,3.0,6.0,78,0.00,,,0.00,,2013-01-29 19:42:00,
2013-01-29 14:52:00,76.0,68.0,30.14,East,85,6.0,12.0,77,0.00,,,0.00,,2013-01-29 19:52:00,
2013-01-29 15:02:00,75.0,68.0,30.13,ESE,121,4.0,10.0,78,0.00,,,0.00,,2013-01-29 20:02:00,
2013-01-29 15:12:00,75.0,68.0,30.13,ESE,121,4.0,10.0,78,0.00,,,0.00,,2013-01-29 20:12:00,
2013-01-29 15:22:00,75.0,68.0,30.13,SE,137,2.0,10.0,79,0.00,,,0.00,,2013-01-29 20:22:00,
2013-01-29 15:33:00,75.0,68.0,30.13,ESE,105,2.0,9.0,79,0.00,,,0.00,,2013-01-29 20:33:00,
2013-01-29 15:42:00,75.0,68.0,30.13,ESE,105,2.0,9.0,79,0.00,,,0.00,,2013-01-29 20:42:00,
2013-01-29 15:53:00,75.0,69.0,30.13,ESE,105,1.0,6.0,81,0.00,,,0.00,,2013-01-29 20:53:00,
2013-01-29 16:03:00,74.0,68.0,30.13,ESE,103,3.0,10.0,83,0.00,,,0.00,,2013-01-29 21:03:00,
2013-01-29 16:12:00,74.0,68.0,30.13,ESE,103,3.0,10.0,83,0.00,,,0.00,,2013-01-29 21:12:00,
2013-01-29 16:22:00,74.0,69.0,30.13,SE,127,2.0,12.0,84,0.00,,,0.00,,2013-01-29 21:22:00,
2013-01-29 16:33:00,73.0,68.0,30.13,ESE,120,3.0,8.0,84,0.00,,,0.00,,2013-01-29 21:33:00,
2013-01-29 16:42:00,73.0,68.0,30.13,ESE,120,3.0,8.0,84,0.00,,,0.00,,2013-01-29 21:42:00,
2013-01-29 16:53:00,73.0,68.0,30.13,East,90,3.0,7.0,84,0.00,,,0.00,,2013-01-29 21:53:00,
2013-01-29 17:03:00,73.0,68.0,30.13,ESE,117,2.0,6.0,83,0.00,,,0.00,,2013-01-29 22:03:00,
2013-01-29 17:12:00,73.0,68.0,30.13,ESE,117,2.0,6.0,83,0.00,,,0.00,,2013-01-29 22:12:00,
2013-01-29 17:22:00,72.0,67.0,30.13,SE,144,3.0,7.0,83,0.00,,,0.00,,2013-01-29 22:22:00,
2013-01-29 17:33:00,72.0,67.0,30.13,ESE,122,4.0,10.0,85,0.00,,,0.00,,2013-01-29 22:33:00,
2013-01-29 17:42:00,72.0,67.0,30.13,ESE,122,4.0,10.0,85,0.00,,,0.00,,2013-01-29 22:42:00,
2013-01-29 17:53:00,71.0,67.0,30.13,ESE,109,2.0,9.0,87,0.00,,,0.00,,2013-01-29 22:53:00,
2013-01-29 18:02:00,71.0,67.0,30.13,ESE,110,2.0,7.0,88,0.00,,,0.00,,2013-01-29 23:02:00,
2013-01-29 18:12:00,71.0,67.0,30.13,ESE,110,2.0,7.0,88,0.00,,,0.00,,2013-01-29 23:12:00,
2013-01-29 18:23:00,70.0,67.0,30.13,SSE,148,0.0,3.0,89,0.00,,,0.00,,2013-01-29 23:23:00,
2013-01-29 18:33:00,70.0,67.0,30.13,East,88,0.0,3.0,89,0.00,,,0.00,,2013-01-29 23:33:00,
2013-01-29 18:42:00,70.0,67.0,30.13,East,88,0.0,3.0,89,0.00,,,0.00,,2013-01-29 23:42:00,
2013-01-29 18:53:00,70.0,67.0,30.13,ESE,105,1.0,8.0,90,0.00,,,0.00,,2013-01-29 23:53:00,
2013-01-29 19:03:00,70.0,67.0,30.13,ESE,103,1.0,9.0,90,0.00,,,0.00,,2013-01-30 00:03:00,
2013-01-29 19:12:00,70.0,67.0,30.13,ESE,103,1.0,9.0,90,0.00,,,0.00,,2013-01-30 00:12:00,
2013-01-29 19:22:00,70.0,67.0,30.13,ESE,107,2.0,6.0,90,0.00,,,0.00,,2013-01-30 00:22:00,
2013-01-29 19:32:00,70.0,67.0,30.13,SSE,151,1.0,5.0,91,0.00,,,0.00,,2013-01-30 00:32:00,
2013-01-29 19:43:00,70.0,67.0,30.13,SSE,151,1.0,5.0,91,0.00,,,0.00,,2013-01-30 00:43:00,
2013-01-29 19:53:00,70.0,67.0,30.13,SSE,157,0.0,3.0,91,0.00,,,0.00,,2013-01-30 00:53:00,
2013-01-29 20:02:00,70.0,67.0,30.14,South,169,0.0,3.0,91,0.00,,,0.00,,2013-01-30 01:02:00,
2013-01-29 20:12:00,70.0,67.0,30.14,South,169,0.0,3.0,91,0.00,,,0.00,,2013-01-30 01:12:00,
2013-01-29 20:22:00,70.0,67.0,30.14,ESE,110,1.0,2.0,91,0.00,,,0.00,,2013-01-30 01:22:00,
2013-01-29 20:32:00,70.0,67.0,30.14,ESE,107,0.0,3.0,91,0.00,,,0.00,,2013-01-30 01:32:00,
2013-01-29 20:42:00,70.0,67.0,30.14,ESE,107,0.0,3.0,91,0.00,,,0.00,,2013-01-30 01:42:00,
2013-01-29 20:52:00,70.0,67.0,30.14,SE,126,0.0,0.0,91,0.00,,,0.00,,2013-01-30 01:52:00,
2013-01-29 21:02:00,70.0,67.0,30.14,SSE,150,0.0,1.0,91,0.00,,,0.00,,2013-01-30 02:02:00,
2013-01-29 21:12:00,70.0,67.0,30.14,ESE,112,0.0,1.0,90,0.00,,,0.00,,2013-01-30 02:12:00,
2013-01-29 21:22:00,70.0,67.0,30.14,ESE,112,0.0,1.0,90,0.00,,,0.00,,2013-01-30 02:22:00,
2013-01-29 21:33:00,70.0,67.0,30.13,ESE,116,0.0,2.0,90,0.00,,,0.00,,2013-01-30 02:33:00,
2013-01-29 21:42:00,70.0,67.0,30.13,ESE,116,0.0,2.0,90,0.00,,,0.00,,2013-01-30 02:42:00,
2013-01-29 21:53:00,70.0,67.0,30.13,East,100,1.0,3.0,90,0.00,,,0.00,,2013-01-30 02:53:00,
2013-01-29 22:03:00,70.0,67.0,30.13,ENE,78,1.0,3.0,89,0.00,,,0.00,,2013-01-30 03:03:00,
2013-01-29 22:12:00,70.0,67.0,30.13,ENE,78,1.0,3.0,89,0.00,,,0.00,,2013-01-30 03:12:00,
2013-01-29 22:22:00,71.0,68.0,30.12,SE,136,1.0,6.0,89,0.00,,,0.00,,2013-01-30 03:22:00,
2013-01-29 22:32:00,71.0,67.0,30.12,SSE,154,0.0,2.0,88,0.00,,,0.00,,2013-01-30 03:32:00,
2013-01-29 22:42:00,71.0,67.0,30.12,SSE,154,0.0,2.0,88,0.00,,,0.00,,2013-01-30 03:42:00,
2013-01-29 22:52:00,70.0,67.0,30.12,SSE,150,0.0,3.0,89,0.00,,,0.00,,2013-01-30 03:52:00,
2013-01-29 23:02:00,70.0,67.0,30.12,SSE,161,0.0,2.0,89,0.00,,,0.00,,2013-01-30 04:02:00,
2013-01-29 23:12:00,70.0,67.0,30.12,SSE,161,0.0,2.0,89,0.00,,,0.00,,2013-01-30 04:12:00,
2013-01-29 23:22:00,69.0,66.0,30.12,SSE,162,0.0,2.0,90,0.00,,,0.00,,2013-01-30 04:22:00,
2013-01-29 23:32:00,69.0,66.0,30.12,SSE,162,0.0,2.0,90,0.00,,,0.00,,2013-01-30 04:32:00,
2013-01-29 23:41:00,69.0,66.0,30.12,SSE,162,0.0,2.0,90,0.00,,,0.00,,2013-01-30 04:41:00,
2013-01-29 23:52:00,68.0,66.0,30.12,SSE,160,0.0,0.0,92,0.00,,,0.00,,2013-01-30 04:52:00,